DAL475 KMSP-KSEA

Flight info

Callsign DAL475
Flight time N/A
Altitude 40000
Route SMERF7 SMERF DIK J36 MLP GLASR3
Aircraft A359/H-SDE2E3GHIJ3J4J5LM1ORWXY/LB1D1

Departure

Time 2026-05-01 15:05
Airport Minneapolis–Saint Paul International Airport / Wold–Chamberlain Field (KMSP)

Arrival

Time N/A
Airport Seattle–Tacoma International Airport (KSEA)
Time Latitude Longitude Altitude Speed Heading
2026-05-01 14:52 44.88118 -93.21213 840 ft 0 kts 18°
2026-05-01 14:57 44.88089 -93.21226 833 ft 3 kts 18°
2026-05-01 14:57 44.88069 -93.21235 832 ft 3 kts 18°
2026-05-01 14:58 44.88050 -93.21243 835 ft 3 kts
2026-05-01 14:58 44.88030 -93.21237 829 ft 3 kts 319°
2026-05-01 14:58 44.88017 -93.21215 830 ft 3 kts 290°
2026-05-01 14:58 44.88014 -93.21196 830 ft 1 kts 271°
2026-05-01 15:00 44.88015 -93.21218 831 ft 5 kts 271°
2026-05-01 15:00 44.88016 -93.21288 833 ft 9 kts 273°
2026-05-01 15:00 44.88035 -93.21385 831 ft 12 kts 294°
2026-05-01 15:01 44.88079 -93.21497 830 ft 14 kts 301°
2026-05-01 15:01 44.88129 -93.21613 831 ft 14 kts 301°
2026-05-01 15:01 44.88186 -93.21743 835 ft 17 kts 301°
2026-05-01 15:01 44.88246 -93.21882 834 ft 17 kts 302°
2026-05-01 15:02 44.88312 -93.22032 834 ft 19 kts 301°
2026-05-01 15:02 44.88360 -93.22142 838 ft 20 kts 301°
2026-05-01 15:02 44.88467 -93.22394 834 ft 24 kts 301°
2026-05-01 15:02 44.88550 -93.22587 838 ft 24 kts 301°
2026-05-01 15:03 44.88634 -93.22782 845 ft 21 kts 301°
2026-05-01 15:03 44.88709 -93.22953 839 ft 21 kts 302°
2026-05-01 15:03 44.88781 -93.23119 853 ft 20 kts 301°
2026-05-01 15:03 44.88847 -93.23293 851 ft 19 kts 279°
2026-05-01 15:04 44.88786 -93.23368 848 ft 10 kts 191°
2026-05-01 15:04 44.88750 -93.23336 844 ft 6 kts 128°
2026-05-01 15:04 44.88721 -93.23271 850 ft 16 kts 122°
2026-05-01 15:04 44.88549 -93.22875 836 ft 82 kts 121°
2026-05-01 15:05 44.88137 -93.21932 838 ft 142 kts 122°
2026-05-01 15:05 44.87575 -93.20610 1246 ft 160 kts 116°
2026-05-01 15:05 44.87027 -93.19276 2157 ft 158 kts 116°
2026-05-01 15:05 44.86441 -93.17848 2525 ft 181 kts 116°
2026-05-01 15:06 44.85759 -93.16193 2882 ft 209 kts 117°
2026-05-01 15:06 44.84972 -93.14311 3204 ft 238 kts 117°
2026-05-01 15:06 44.84104 -93.12248 3813 ft 252 kts 118°
2026-05-01 15:06 44.83039 -93.10230 4586 ft 264 kts 136°
2026-05-01 15:07 44.81417 -93.08961 5426 ft 272 kts 164°
2026-05-01 15:07 44.79533 -93.08836 6345 ft 273 kts 192°
2026-05-01 15:07 44.77758 -93.09735 7303 ft 272 kts 208°
2026-05-01 15:07 44.76054 -93.10951 8143 ft 278 kts 210°
2026-05-01 15:08 44.74563 -93.12676 8971 ft 279 kts 235°
2026-05-01 15:08 44.73749 -93.15117 9904 ft 277 kts 261°
2026-05-01 15:08 44.73761 -93.17823 10615 ft 280 kts 287°
2026-05-01 15:08 44.74472 -93.20336 11585 ft 276 kts 298°
2026-05-01 15:09 44.75344 -93.22743 12534 ft 277 kts 300°
2026-05-01 15:09 44.76253 -93.25176 13264 ft 288 kts 300°
2026-05-01 15:09 44.77227 -93.27758 13664 ft 309 kts 300°
2026-05-01 15:09 44.78273 -93.30511 14039 ft 329 kts 300°
2026-05-01 15:10 44.79386 -93.33430 14362 ft 347 kts 300°
2026-05-01 15:10 44.81736 -93.39565 15657 ft 361 kts 300°
2026-05-01 15:10 44.83045 -93.42610 16429 ft 365 kts 307°
2026-05-01 15:11 44.84592 -93.45473 17206 ft 370 kts 309°
2026-05-01 15:11 44.87844 -93.51156 18701 ft 379 kts 310°
2026-05-01 15:11 44.89521 -93.54061 19349 ft 384 kts 310°
2026-05-01 15:12 44.91224 -93.57008 19984 ft 389 kts 310°
2026-05-01 15:12 44.94690 -93.63010 21263 ft 398 kts 310°
2026-05-01 15:12 44.96450 -93.66060 21923 ft 403 kts 310°
2026-05-01 15:13 45.01856 -93.75449 23793 ft 417 kts 309°
2026-05-01 15:14 45.05553 -93.81886 24868 ft 425 kts 309°
2026-05-01 15:14 45.07366 -93.85148 25385 ft 429 kts 306°
2026-05-01 15:14 45.10099 -93.92722 26443 ft 438 kts 290°
2026-05-01 15:15 45.12103 -94.00942 27513 ft 445 kts 289°
2026-05-01 15:15 45.14124 -94.09302 28549 ft 452 kts 289°
2026-05-01 15:16 45.16181 -94.17799 29488 ft 460 kts 289°
2026-05-01 15:16 45.18272 -94.26459 30344 ft 467 kts 289°
2026-05-01 15:17 45.20365 -94.35150 31186 ft 470 kts 289°
2026-05-01 15:18 45.23544 -94.48445 32172 ft 479 kts 289°
2026-05-01 15:18 45.24616 -94.52942 32498 ft 482 kts 289°
2026-05-01 15:19 45.27823 -94.66455 33900 ft 479 kts 289°
2026-05-01 15:19 45.29934 -94.75395 34693 ft 477 kts 289°
2026-05-01 15:19 45.30990 -94.79876 34992 ft 477 kts 289°
2026-05-01 15:20 45.33089 -94.88821 35653 ft 477 kts 289°
2026-05-01 15:20 45.34137 -94.93294 35954 ft 477 kts 289°
2026-05-01 15:20 45.35184 -94.97779 36233 ft 477 kts 289°
2026-05-01 15:21 45.36226 -95.02247 36542 ft 477 kts 289°
2026-05-01 15:21 45.37270 -95.06737 36840 ft 477 kts 289°
2026-05-01 15:21 45.38312 -95.11227 37131 ft 477 kts 289°
2026-05-01 15:21 45.39351 -95.15711 37423 ft 477 kts 289°
2026-05-01 15:22 45.41421 -95.24675 37975 ft 477 kts 289°
2026-05-01 15:22 45.42456 -95.29170 38259 ft 477 kts 289°
2026-05-01 15:22 45.43487 -95.33657 38527 ft 477 kts 289°
2026-05-01 15:23 45.44503 -95.38088 38762 ft 477 kts 289°
2026-05-01 15:23 45.45530 -95.42576 38978 ft 477 kts 289°
2026-05-01 15:23 45.46555 -95.47066 39158 ft 477 kts 289°
2026-05-01 15:23 45.47581 -95.51570 39341 ft 477 kts 289°
2026-05-01 15:24 45.48603 -95.56066 39526 ft 477 kts 289°
2026-05-01 15:24 45.49624 -95.60562 39705 ft 477 kts 289°
2026-05-01 15:24 45.50644 -95.65070 39897 ft 477 kts 289°
2026-05-01 15:24 45.51660 -95.69566 40064 ft 477 kts 289°
2026-05-01 15:25 45.52676 -95.74069 40168 ft 478 kts 289°
2026-05-01 15:25 45.53684 -95.78550 40183 ft 482 kts 289°
2026-05-01 15:25 45.55740 -95.87714 40172 ft 488 kts 289°
2026-05-01 15:26 45.57808 -95.96971 40173 ft 490 kts 289°
2026-05-01 15:26 45.59868 -96.06242 40173 ft 490 kts 289°
2026-05-01 15:27 45.61921 -96.15514 40181 ft 490 kts 289°
2026-05-01 15:28 45.64988 -96.29443 40222 ft 490 kts 289°
2026-05-01 15:28 45.67025 -96.38748 40229 ft 490 kts 289°
2026-05-01 15:29 45.70069 -96.52726 40223 ft 491 kts 289°
2026-05-01 15:30 45.74089 -96.71334 40228 ft 491 kts 289°
2026-05-01 15:31 45.80088 -96.99418 40222 ft 491 kts 289°
2026-05-01 15:32 45.84048 -97.18167 40224 ft 492 kts 289°
2026-05-01 15:34 45.89922 -97.46297 40220 ft 492 kts 289°